TimeCDT,TemperatureF,Dew PointF,Humidity,Sea Level PressureIn,VisibilityMPH,Wind Direction,Wind SpeedMPH,Gust SpeedMPH,PrecipitationIn,Events,Conditions,WindDirDegrees,DateUTC
12:52 AM,50.0,45.0,83,29.97,10.0,NW,4.6,-,N/A,,Partly Cloudy,310,2013-09-22 05:52:00
1:52 AM,50.0,44.1,80,29.99,10.0,NW,5.8,-,N/A,,Partly Cloudy,320,2013-09-22 06:52:00
2:52 AM,48.9,44.1,83,29.99,10.0,NW,5.8,-,N/A,,Partly Cloudy,320,2013-09-22 07:52:00
3:52 AM,48.0,43.0,83,30.00,10.0,NW,6.9,-,N/A,,Scattered Clouds,310,2013-09-22 08:52:00
4:52 AM,46.9,42.1,83,30.02,10.0,NW,5.8,-,N/A,,Partly Cloudy,320,2013-09-22 09:52:00
5:52 AM,46.9,41.0,80,30.04,10.0,NW,6.9,-,N/A,,Partly Cloudy,310,2013-09-22 10:52:00
6:52 AM,45.0,39.0,80,30.04,10.0,NNW,5.8,-,N/A,,Partly Cloudy,330,2013-09-22 11:52:00
7:52 AM,48.9,39.9,71,30.05,10.0,NW,6.9,-,N/A,,Partly Cloudy,320,2013-09-22 12:52:00
8:52 AM,53.1,42.1,66,30.07,10.0,North,6.9,-,N/A,,Partly Cloudy,350,2013-09-22 13:52:00
9:52 AM,57.0,45.0,64,30.08,10.0,NNE,8.1,-,N/A,,Partly Cloudy,20,2013-09-22 14:52:00
10:52 AM,57.0,44.1,62,30.09,10.0,Variable,5.8,-,N/A,,Partly Cloudy,0,2013-09-22 15:52:00
11:52 AM,57.9,45.0,62,30.08,10.0,NE,10.4,-,N/A,,Partly Cloudy,50,2013-09-22 16:52:00
12:52 PM,57.9,45.0,62,30.07,10.0,NE,8.1,-,N/A,,Partly Cloudy,50,2013-09-22 17:52:00
1:52 PM,57.9,45.0,62,30.06,10.0,NE,11.5,-,N/A,,Scattered Clouds,40,2013-09-22 18:52:00
2:52 PM,59.0,46.0,62,30.06,10.0,ENE,11.5,16.1,N/A,,Partly Cloudy,70,2013-09-22 19:52:00
3:52 PM,59.0,44.1,58,30.05,10.0,ENE,9.2,-,N/A,,Partly Cloudy,60,2013-09-22 20:52:00
4:52 PM,57.9,44.1,60,30.04,10.0,NE,9.2,-,N/A,,Partly Cloudy,50,2013-09-22 21:52:00
5:52 PM,57.0,43.0,59,30.05,10.0,ENE,9.2,-,N/A,,Partly Cloudy,60,2013-09-22 22:52:00
6:52 PM,54.0,42.1,64,30.05,10.0,NE,4.6,-,N/A,,Partly Cloudy,40,2013-09-22 23:52:00
7:52 PM,54.0,46.9,77,30.06,10.0,East,8.1,-,N/A,,Partly Cloudy,80,2013-09-23 00:52:00
8:52 PM,54.0,46.9,77,30.07,10.0,East,8.1,-,N/A,,Scattered Clouds,80,2013-09-23 01:52:00
9:52 PM,54.0,46.0,75,30.07,10.0,ENE,9.2,-,N/A,,Scattered Clouds,70,2013-09-23 02:52:00
10:52 PM,54.0,46.0,75,30.08,10.0,ENE,10.4,-,N/A,,Scattered Clouds,70,2013-09-23 03:52:00
11:52 PM,52.0,45.0,77,30.09,10.0,East,6.9,-,N/A,,Scattered Clouds,80,2013-09-23 04:52:00